Location: Navalmoral
(40.4603°N, 4.7686°W)
Time: 06:55:33
(UTC+00:00)

Spot 2 Rocket - Pass Details

Date: 05 August 2024
Orbit: 753 x 769 km, 98.4° (Epoch: 14 September)

Event Time Altitude Azimuth Distance (km) Brightness Sun altitude
Exits shadow 21:18:14 34° 130° (SE) 1,247 4.0 -18.3°
Maximum altitude 21:20:09 53° 72° (ENE) 934 3.7 -18.6°
Drops below altitude 10° 21:25:05 10° 357° (N) 2,305 6.6 -19.3°
Sets 21:27:26 0° 352° (N) 3,233 7.6 -19.6°
